TimeCDT,TemperatureF,Dew PointF,Humidity,Sea Level PressureIn,VisibilityMPH,Wind Direction,Wind SpeedMPH,Gust SpeedMPH,PrecipitationIn,Events,Conditions,WindDirDegrees,DateUTC
12:15 AM,40.1,39.7,99,29.97,1.8,Calm,Calm,-,N/A,,Mist,0,2013-09-24 05:15:00
12:35 AM,41.4,41.4,100,29.97,0.5,Calm,Calm,-,N/A,Fog,Fog,0,2013-09-24 05:35:00
12:55 AM,39.9,39.7,99,29.97,1.5,Calm,Calm,-,N/A,,Mist,0,2013-09-24 05:55:00
1:15 AM,39.2,39.0,99,29.97,2.0,Calm,Calm,-,N/A,,Clear,0,2013-09-24 06:15:00
1:35 AM,39.7,39.7,100,29.97,0.8,Calm,Calm,-,N/A,,Mist,0,2013-09-24 06:35:00
1:55 AM,40.5,40.3,99,29.98,0.5,Calm,Calm,-,N/A,Fog,Fog,0,2013-09-24 06:55:00
2:35 AM,38.1,38.1,100,29.98,3.0,Calm,Calm,-,N/A,,Clear,0,2013-09-24 07:35:00
2:55 AM,37.8,37.6,99,29.98,0.5,Calm,Calm,-,N/A,Fog,Fog,0,2013-09-24 07:55:00
3:15 AM,35.8,35.8,100,29.98,0.2,Calm,Calm,-,N/A,Fog,Fog,0,2013-09-24 08:15:00
3:35 AM,36.7,36.7,100,29.98,0.2,Calm,Calm,-,N/A,Fog,Fog,0,2013-09-24 08:35:00
3:55 AM,37.2,37.2,100,29.98,0.2,Calm,Calm,-,N/A,Fog,Fog,0,2013-09-24 08:55:00
4:35 AM,36.5,36.5,100,29.98,0.2,Calm,Calm,-,N/A,Fog,Fog,0,2013-09-24 09:35:00
4:55 AM,40.1,40.1,100,29.98,0.5,Calm,Calm,-,N/A,Fog,Fog,0,2013-09-24 09:55:00
5:15 AM,36.7,36.7,100,29.99,0.2,Calm,Calm,-,N/A,Fog,Fog,0,2013-09-24 10:15:00
5:35 AM,36.7,36.7,100,29.99,0.2,Calm,Calm,-,N/A,Fog,Fog,0,2013-09-24 10:35:00
5:55 AM,36.3,36.3,100,29.99,0.2,Calm,Calm,-,N/A,Fog,Fog,0,2013-09-24 10:55:00
6:15 AM,35.4,35.4,100,29.99,0.5,Calm,Calm,-,N/A,Fog,Fog,0,2013-09-24 11:15:00
6:35 AM,36.1,36.1,100,29.99,0.2,Calm,Calm,-,N/A,Fog,Fog,0,2013-09-24 11:35:00
6:55 AM,35.4,35.4,100,29.99,0.2,Calm,Calm,-,N/A,Fog,Fog,0,2013-09-24 11:55:00
7:15 AM,36.9,36.9,100,30.00,0.5,Calm,Calm,-,N/A,Fog,Fog,0,2013-09-24 12:15:00
7:35 AM,37.4,37.4,100,30.00,0.5,Calm,Calm,-,N/A,Fog,Fog,0,2013-09-24 12:35:00
7:55 AM,40.3,40.3,100,30.00,1.0,Calm,Calm,-,N/A,,Mostly Cloudy,0,2013-09-24 12:55:00
8:15 AM,45.5,45.5,100,30.00,3.0,Calm,Calm,-,N/A,,Clear,0,2013-09-24 13:15:00
8:35 AM,51.1,50.0,96,30.00,10.0,Calm,Calm,-,N/A,,Clear,0,2013-09-24 13:35:00
8:55 AM,53.1,50.5,91,30.01,10.0,Calm,Calm,-,N/A,,Clear,0,2013-09-24 13:55:00
9:15 AM,54.5,50.2,85,30.01,10.0,SSE,4.6,-,N/A,,Clear,150,2013-09-24 14:15:00
9:35 AM,55.9,50.4,82,30.01,10.0,Calm,Calm,-,N/A,,Clear,0,2013-09-24 14:35:00
9:55 AM,56.7,50.5,80,30.01,10.0,Calm,Calm,-,N/A,,Clear,0,2013-09-24 14:55:00
10:15 AM,57.7,50.9,78,30.01,10.0,Calm,Calm,-,N/A,,Clear,0,2013-09-24 15:15:00
10:35 AM,59.9,50.9,72,30.01,10.0,Calm,Calm,-,N/A,,Clear,0,2013-09-24 15:35:00
10:55 AM,62.1,51.6,69,30.01,10.0,Calm,Calm,-,N/A,,Clear,0,2013-09-24 15:55:00
11:15 AM,62.1,52.3,70,30.01,10.0,Calm,Calm,-,N/A,,Clear,0,2013-09-24 16:15:00
11:35 AM,63.7,53.6,70,30.00,10.0,ENE,4.6,-,N/A,,Clear,60,2013-09-24 16:35:00
11:55 AM,63.1,53.2,70,30.00,10.0,East,6.9,-,N/A,,Clear,100,2013-09-24 16:55:00
12:15 PM,64.0,53.8,69,30.00,10.0,East,5.8,-,N/A,,Clear,90,2013-09-24 17:15:00
12:55 PM,63.5,53.1,69,29.99,10.0,ENE,5.8,-,N/A,,Clear,60,2013-09-24 17:55:00
1:15 PM,63.0,52.9,70,29.99,10.0,NE,8.1,-,N/A,,Clear,50,2013-09-24 18:15:00
1:35 PM,62.2,53.1,72,29.98,10.0,ENE,8.1,-,N/A,,Clear,70,2013-09-24 18:35:00
1:55 PM,62.6,53.8,73,29.97,10.0,NE,9.2,-,N/A,,Clear,40,2013-09-24 18:55:00
2:15 PM,62.4,52.9,71,29.97,10.0,NNE,8.1,-,N/A,,Clear,30,2013-09-24 19:15:00
2:35 PM,61.7,51.6,69,29.97,10.0,ENE,9.2,-,N/A,,Clear,70,2013-09-24 19:35:00
2:55 PM,62.2,52.7,71,29.96,10.0,ENE,9.2,-,N/A,,Clear,60,2013-09-24 19:55:00
3:15 PM,62.8,53.2,71,29.96,10.0,ENE,8.1,-,N/A,,Clear,70,2013-09-24 20:15:00
3:35 PM,62.1,53.1,72,29.96,10.0,NE,6.9,-,N/A,,Clear,50,2013-09-24 20:35:00
3:55 PM,61.2,51.8,71,29.96,10.0,NE,9.2,-,N/A,,Clear,40,2013-09-24 20:55:00
4:15 PM,61.3,51.8,71,29.96,10.0,NE,6.9,-,N/A,,Clear,50,2013-09-24 21:15:00
4:35 PM,60.4,51.4,72,29.95,10.0,ENE,6.9,-,N/A,,Clear,60,2013-09-24 21:35:00
4:55 PM,59.4,51.4,75,29.95,10.0,ENE,6.9,-,N/A,,Clear,60,2013-09-24 21:55:00
5:15 PM,59.9,51.4,74,29.96,10.0,NE,6.9,-,N/A,,Clear,50,2013-09-24 22:15:00
5:35 PM,59.4,51.8,76,29.96,10.0,NE,6.9,-,N/A,,Clear,50,2013-09-24 22:35:00
5:55 PM,58.1,51.1,77,29.96,10.0,ENE,6.9,-,N/A,,Clear,60,2013-09-24 22:55:00
6:15 PM,57.4,51.4,81,29.96,10.0,NE,4.6,-,N/A,,Clear,50,2013-09-24 23:15:00
6:35 PM,56.1,51.3,84,29.96,10.0,NE,3.5,-,N/A,,Clear,50,2013-09-24 23:35:00
6:55 PM,54.9,50.9,86,29.97,10.0,NE,4.6,-,N/A,,Clear,50,2013-09-24 23:55:00
7:15 PM,53.6,50.9,91,29.97,10.0,ENE,3.5,-,N/A,,Clear,60,2013-09-25 00:15:00
7:35 PM,54.1,50.9,89,29.97,10.0,Calm,Calm,-,N/A,,Clear,0,2013-09-25 00:35:00
7:55 PM,52.7,50.2,91,29.98,10.0,NE,4.6,-,N/A,,Clear,50,2013-09-25 00:55:00
8:15 PM,53.1,51.1,93,29.98,10.0,ENE,3.5,-,N/A,,Clear,70,2013-09-25 01:15:00
8:35 PM,53.2,51.3,93,29.98,10.0,Calm,Calm,-,N/A,,Clear,0,2013-09-25 01:35:00
8:55 PM,51.4,50.2,95,29.98,10.0,NE,3.5,-,N/A,,Clear,50,2013-09-25 01:55:00
9:15 PM,52.7,51.4,95,29.97,10.0,ENE,4.6,-,N/A,,Clear,70,2013-09-25 02:15:00
9:35 PM,51.8,50.4,95,29.98,10.0,NE,5.8,-,N/A,,Clear,40,2013-09-25 02:35:00
9:55 PM,52.7,51.1,94,29.98,10.0,NE,4.6,-,N/A,,Scattered Clouds,50,2013-09-25 02:55:00
10:15 PM,52.0,50.7,95,29.98,10.0,NE,4.6,-,N/A,,Mostly Cloudy,50,2013-09-25 03:15:00
10:35 PM,53.1,51.4,94,29.98,10.0,NE,3.5,-,N/A,,Overcast,40,2013-09-25 03:35:00
10:55 PM,53.6,52.3,95,29.98,10.0,ENE,4.6,-,N/A,,Overcast,60,2013-09-25 03:55:00
11:15 PM,53.6,52.2,95,29.98,10.0,NE,4.6,-,N/A,,Overcast,50,2013-09-25 04:15:00
11:35 PM,54.1,52.7,95,29.98,10.0,NE,3.5,-,N/A,,Overcast,50,2013-09-25 04:35:00
11:55 PM,54.0,52.5,95,29.98,10.0,ENE,5.8,-,N/A,,Overcast,70,2013-09-25 04:55:00